#Datum;Uhrzeit;WR;Pac;DaySum;Status;WR;Pac;DaySum;Status;Pdc1;Udc;Temp;WR;Pac;DaySum;Status;Pdc1;Udc;Temp;WR;Pac;DaySum;Status;Pdc1;Udc;Temp;WR;Pac;DaySum;Status;Pdc1;Pdc2;Udc1;Udc2;Temp;WR;Pac;DaySum;Status;Pdc1;Pdc2;Udc1;Udc2;Temp;WR;Pac;DaySum;Status;Pdc1;Udc;Temp;WR;Pac;DaySum;Status;Pdc1;Udc;Temp;WR;Pac;DaySum;Status;Pdc1;Udc;Temp
14.11.19;23:55:00;1;294;7660;0;2;0;16503;0;0;0;0;3;0;10957;0;0;0;0;4;0;12652;0;0;0;0;5;0;41373;0;0;0;0;0;0;6;0;31612;0;0;0;0;0;0;7;0;29150;0;0;0;0;8;0;28353;0;0;0;0;9;0;15227;0;0;0;0
14.11.19;23:50:00;1;262;7635;0;2;0;16503;0;0;0;0;3;0;10957;0;0;0;0;4;0;12652;0;0;0;0;5;0;41373;0;0;0;0;0;0;6;0;31612;0;0;0;0;0;0;7;0;29150;0;0;0;0;8;0;28353;0;0;0;0;9;0;15227;0;0;0;0
14.11.19;23:45:00;1;274;7612;0;2;0;16503;0;0;0;0;3;0;10957;0;0;0;0;4;0;12652;0;0;0;0;5;0;41373;0;0;0;0;0;0;6;0;31612;0;0;0;0;0;0;7;0;29150;0;0;0;0;8;0;28353;0;0;0;0;9;0;15227;0;0;0;0
14.11.19;23:40:00;1;275;7589;0;2;0;16503;0;0;0;0;3;0;10957;0;0;0;0;4;0;12652;0;0;0;0;5;0;41373;0;0;0;0;0;0;6;0;31612;0;0;0;0;0;0;7;0;29150;0;0;0;0;8;0;28353;0;0;0;0;9;0;15227;0;0;0;0
14.11.19;23:35:00;1;276;7566;0;2;0;16503;0;0;0;0;3;0;10957;0;0;0;0;4;0;12652;0;0;0;0;5;0;41373;0;0;0;0;0;0;6;0;31612;0;0;0;0;0;0;7;0;29150;0;0;0;0;8;0;28353;0;0;0;0;9;0;15227;0;0;0;0
14.11.19;23:30:00;1;278;7543;0;2;0;16503;0;0;0;0;3;0;10957;0;0;0;0;4;0;12652;0;0;0;0;5;0;41373;0;0;0;0;0;0;6;0;31612;0;0;0;0;0;0;7;0;29150;0;0;0;0;8;0;28353;0;0;0;0;9;0;15227;0;0;0;0
14.11.19;23:25:00;1;283;7520;0;2;0;16503;0;0;0;0;3;0;10957;0;0;0;0;4;0;12652;0;0;0;0;5;0;41373;0;0;0;0;0;0;6;0;31612;0;0;0;0;0;0;7;0;29150;0;0;0;0;8;0;28353;0;0;0;0;9;0;15227;0;0;0;0
14.11.19;23:20:00;1;285;7496;0;2;0;16503;0;0;0;0;3;0;10957;0;0;0;0;4;0;12652;0;0;0;0;5;0;41373;0;0;0;0;0;0;6;0;31612;0;0;0;0;0;0;7;0;29150;0;0;0;0;8;0;28353;0;0;0;0;9;0;15227;0;0;0;0
14.11.19;23:15:00;1;326;7472;0;2;0;16503;0;0;0;0;3;0;10957;0;0;0;0;4;0;12652;0;0;0;0;5;0;41373;0;0;0;0;0;0;6;0;31612;0;0;0;0;0;0;7;0;29150;0;0;0;0;8;0;28353;0;0;0;0;9;0;15227;0;0;0;0
14.11.19;23:10:00;1;277;7445;0;2;0;16503;0;0;0;0;3;0;10957;0;0;0;0;4;0;12652;0;0;0;0;5;0;41373;0;0;0;0;0;0;6;0;31612;0;0;0;0;0;0;7;0;29150;0;0;0;0;8;0;28353;0;0;0;0;9;0;15227;0;0;0;0
14.11.19;23:05:00;1;261;7418;0;2;0;16503;0;0;0;0;3;0;10957;0;0;0;0;4;0;12652;0;0;0;0;5;0;41373;0;0;0;0;0;0;6;0;31612;0;0;0;0;0;0;7;0;29150;0;0;0;0;8;0;28353;0;0;0;0;9;0;15227;0;0;0;0
14.11.19;23:00:00;1;261;7396;0;2;0;16503;0;0;0;0;3;0;10957;0;0;0;0;4;0;12652;0;0;0;0;5;0;41373;0;0;0;0;0;0;6;0;31612;0;0;0;0;0;0;7;0;29150;0;0;0;0;8;0;28353;0;0;0;0;9;0;15227;0;0;0;0
14.11.19;22:55:00;1;271;7375;0;2;0;16503;0;0;0;0;3;0;10957;0;0;0;0;4;0;12652;0;0;0;0;5;0;41373;2;0;0;0;0;0;6;0;31612;2;0;0;0;0;0;7;0;29150;0;0;0;0;8;0;28353;0;0;0;0;9;0;15227;0;0;0;0
14.11.19;22:50:00;1;219;7353;0;2;0;16503;0;0;0;0;3;0;10957;0;0;0;0;4;0;12652;0;0;0;0;5;0;41373;2;0;0;0;0;0;6;0;31612;2;0;0;0;0;0;7;0;29150;0;0;0;0;8;0;28353;0;0;0;0;9;0;15227;0;0;0;0
14.11.19;22:45:00;1;219;7335;0;2;0;16503;0;0;0;0;3;0;10957;0;0;0;0;4;0;12652;0;0;0;0;5;0;41373;2;0;0;0;0;0;6;0;31612;2;0;0;0;0;0;7;0;29150;0;0;0;0;8;0;28353;0;0;0;0;9;0;15227;0;0;0;0
14.11.19;22:40:00;1;230;7316;0;2;0;16503;0;0;0;0;3;0;10957;0;0;0;0;4;0;12652;0;0;0;0;5;0;41373;2;0;0;0;0;0;6;0;31612;2;0;0;0;0;0;7;0;29150;0;0;0;0;8;0;28353;0;0;0;0;9;0;15227;0;0;0;0
14.11.19;22:35:00;1;273;7297;0;2;0;16503;0;0;0;0;3;0;10957;0;0;0;0;4;0;12652;0;0;0;0;5;0;41373;2;0;0;0;0;0;6;0;31612;2;0;0;0;0;0;7;0;29150;0;0;0;0;8;0;28353;0;0;0;0;9;0;15227;0;0;0;0
14.11.19;22:30:00;1;222;7274;0;2;0;16503;0;0;0;0;3;0;10957;0;0;0;0;4;0;12652;0;0;0;0;5;0;41373;2;0;0;0;0;0;6;0;31612;2;0;0;0;0;0;7;0;29150;0;0;0;0;8;0;28353;0;0;0;0;9;0;15227;0;0;0;0
14.11.19;22:25:00;1;222;7256;0;2;0;16503;0;0;0;0;3;0;10957;0;0;0;0;4;0;12652;0;0;0;0;5;0;41373;2;0;0;0;0;0;6;0;31612;2;0;0;0;0;0;7;0;29150;0;0;0;0;8;0;28353;0;0;0;0;9;0;15227;0;0;0;0
14.11.19;22:20:00;1;224;7237;0;2;0;16503;0;0;0;0;3;0;10957;0;0;0;0;4;0;12652;0;0;0;0;5;0;41373;2;0;0;0;0;0;6;0;31612;2;0;0;0;0;0;7;0;29150;0;0;0;0;8;0;28353;0;0;0;0;9;0;15227;0;0;0;0
14.11.19;22:15:00;1;265;7218;0;2;0;16503;0;0;0;0;3;0;10957;0;0;0;0;4;0;12652;0;0;0;0;5;0;41373;2;0;0;0;0;0;6;0;31612;2;0;0;0;0;0;7;0;29150;0;0;0;0;8;0;28353;0;0;0;0;9;0;15227;0;0;0;0
14.11.19;22:10:00;1;306;7196;0;2;0;16503;0;0;0;0;3;0;10957;0;0;0;0;4;0;12652;0;0;0;0;5;0;41373;2;0;0;0;0;0;6;0;31612;2;0;0;0;0;0;7;0;29150;0;0;0;0;8;0;28353;0;0;0;0;9;0;15227;0;0;0;0
14.11.19;22:05:00;1;313;7170;0;2;0;16503;0;0;0;0;3;0;10957;0;0;0;0;4;0;12652;0;0;0;0;5;0;41373;2;0;0;0;0;0;6;0;31612;2;0;0;0;0;0;7;0;29150;0;0;0;0;8;0;28353;0;0;0;0;9;0;15227;0;0;0;0
14.11.19;22:00:00;1;253;7147;0;2;0;16503;0;0;0;0;3;0;10957;0;0;0;0;4;0;12652;0;0;0;0;5;0;41373;2;0;0;0;0;0;6;0;31612;2;0;0;0;0;0;7;0;29150;0;0;0;0;8;0;28353;0;0;0;0;9;0;15227;0;0;0;0
14.11.19;21:55:00;1;354;7124;0;2;0;16503;0;0;0;0;3;0;10957;0;0;0;0;4;0;12652;0;0;0;0;5;0;41373;2;0;0;0;0;0;6;0;31612;2;0;0;0;0;0;7;0;29150;0;0;0;0;8;0;28353;0;0;0;0;9;0;15227;0;0;0;0
14.11.19;21:50:00;1;296;7094;0;2;0;16503;0;0;0;0;3;0;10957;0;0;0;0;4;0;12652;0;0;0;0;5;0;41373;2;0;0;0;0;0;6;0;31612;2;0;0;0;0;0;7;0;29150;0;0;0;0;8;0;28353;0;0;0;0;9;0;15227;0;0;0;0
14.11.19;21:45:00;1;305;7069;0;2;0;16503;0;0;0;0;3;0;10957;0;0;0;0;4;0;12652;0;0;0;0;5;0;41373;2;0;0;0;0;0;6;0;31612;2;0;0;0;0;0;7;0;29150;0;0;0;0;8;0;28353;0;0;0;0;9;0;15227;0;0;0;0
14.11.19;21:40:00;1;386;7043;0;2;0;16503;0;0;0;0;3;0;10957;0;0;0;0;4;0;12652;0;0;0;0;5;0;41373;2;0;0;0;0;0;6;0;31612;2;0;0;0;0;0;7;0;29150;0;0;0;0;8;0;28353;0;0;0;0;9;0;15227;0;0;0;0
14.11.19;21:35:00;1;482;7009;0;2;0;16503;0;0;0;0;3;0;10957;0;0;0;0;4;0;12652;0;0;0;0;5;0;41373;2;0;0;0;0;0;6;0;31612;2;0;0;0;0;0;7;0;29150;0;0;0;0;8;0;28353;0;0;0;0;9;0;15227;0;0;0;0
14.11.19;21:30:00;1;512;6969;0;2;0;16503;0;0;0;0;3;0;10957;0;0;0;0;4;0;12652;0;0;0;0;5;0;41373;2;0;0;0;0;0;6;0;31612;2;0;0;0;0;0;7;0;29150;0;0;0;0;8;0;28353;0;0;0;0;9;0;15227;0;0;0;0
14.11.19;21:25:00;1;639;6923;0;2;0;16503;0;0;0;0;3;0;10957;0;0;0;0;4;0;12652;0;0;0;0;5;0;41373;2;0;0;0;0;0;6;0;31612;2;0;0;0;0;0;7;0;29150;0;0;0;0;8;0;28353;0;0;0;0;9;0;15227;0;0;0;0
14.11.19;21:20:00;1;652;6870;0;2;0;16503;0;0;0;0;3;0;10957;0;0;0;0;4;0;12652;0;0;0;0;5;0;41373;2;0;0;0;0;0;6;0;31612;2;0;0;0;0;0;7;0;29150;0;0;0;0;8;0;28353;0;0;0;0;9;0;15227;0;0;0;0
14.11.19;21:15:00;1;739;6815;0;2;0;16503;0;0;0;0;3;0;10957;0;0;0;0;4;0;12652;0;0;0;0;5;0;41373;2;0;0;0;0;0;6;0;31612;2;0;0;0;0;0;7;0;29150;0;0;0;0;8;0;28353;0;0;0;0;9;0;15227;0;0;0;0
14.11.19;21:10:00;1;563;6753;0;2;0;16503;0;0;0;0;3;0;10957;0;0;0;0;4;0;12652;0;0;0;0;5;0;41373;2;0;0;0;0;0;6;0;31612;2;0;0;0;0;0;7;0;29150;0;0;0;0;8;0;28353;0;0;0;0;9;0;15227;0;0;0;0
14.11.19;21:05:00;1;578;6705;0;2;0;16503;0;0;0;0;3;0;10957;0;0;0;0;4;0;12652;0;0;0;0;5;0;41373;2;0;0;0;0;0;6;0;31612;2;0;0;0;0;0;7;0;29150;0;0;0;0;8;0;28353;0;0;0;0;9;0;15227;0;0;0;0
14.11.19;21:00:00;1;452;6657;0;2;0;16503;0;0;0;0;3;0;10957;0;0;0;0;4;0;12652;0;0;0;0;5;0;41373;2;0;0;0;0;0;6;0;31612;2;0;0;0;0;0;7;0;29150;0;0;0;0;8;0;28353;0;0;0;0;9;0;15227;0;0;0;0
14.11.19;20:55:00;1;425;6621;0;2;0;16503;0;0;0;0;3;0;10957;0;0;0;0;4;0;12652;0;0;0;0;5;0;41373;2;0;0;0;0;0;6;0;31612;2;0;0;0;0;0;7;0;29150;0;0;0;0;8;0;28353;0;0;0;0;9;0;15227;0;0;0;0
14.11.19;20:50:00;1;425;6586;0;2;0;16503;0;0;0;0;3;0;10957;0;0;0;0;4;0;12652;0;0;0;0;5;0;41373;2;0;0;0;0;0;6;0;31612;2;0;0;0;0;0;7;0;29150;0;0;0;0;8;0;28353;0;0;0;0;9;0;15227;0;0;0;0
14.11.19;20:45:00;1;426;6550;0;2;0;16503;0;0;0;0;3;0;10957;0;0;0;0;4;0;12652;0;0;0;0;5;0;41373;2;0;0;0;0;0;6;0;31612;2;0;0;0;0;0;7;0;29150;0;0;0;0;8;0;28353;0;0;0;0;9;0;15227;0;0;0;0
14.11.19;20:40:00;1;431;6515;0;2;0;16503;0;0;0;0;3;0;10957;0;0;0;0;4;0;12652;0;0;0;0;5;0;41373;2;0;0;0;0;0;6;0;31612;2;0;0;0;0;0;7;0;29150;0;0;0;0;8;0;28353;0;0;0;0;9;0;15227;0;0;0;0
14.11.19;20:35:00;1;534;6478;0;2;0;16503;0;0;0;0;3;0;10957;0;0;0;0;4;0;12652;0;0;0;0;5;0;41373;2;0;0;0;0;0;6;0;31612;2;0;0;0;0;0;7;0;29150;0;0;0;0;8;0;28353;0;0;0;0;9;0;15227;0;0;0;0
14.11.19;20:30:00;1;463;6433;0;2;0;16503;0;0;0;0;3;0;10957;0;0;0;0;4;0;12652;0;0;0;0;5;0;41373;2;0;0;0;0;0;6;0;31612;2;0;0;0;0;0;7;0;29150;0;0;0;0;8;0;28353;0;0;0;0;9;0;15227;0;0;0;0
14.11.19;20:25:00;1;464;6394;0;2;0;16503;0;0;0;0;3;0;10957;0;0;0;0;4;0;12652;0;0;0;0;5;0;41373;2;0;0;0;0;0;6;0;31612;2;0;0;0;0;0;7;0;29150;0;0;0;0;8;0;28353;0;0;0;0;9;0;15227;0;0;0;0
14.11.19;20:20:00;1;420;6355;0;2;0;16503;0;0;0;0;3;0;10957;0;0;0;0;4;0;12652;0;0;0;0;5;0;41373;2;0;0;0;0;0;6;0;31612;2;0;0;0;0;0;7;0;29150;0;0;0;0;8;0;28353;0;0;0;0;9;0;15227;0;0;0;0
14.11.19;20:15:00;1;421;6320;0;2;0;16503;0;0;0;0;3;0;10957;0;0;0;0;4;0;12652;0;0;0;0;5;0;41373;2;0;0;0;0;0;6;0;31612;2;0;0;0;0;0;7;0;29150;0;0;0;0;8;0;28353;0;0;0;0;9;0;15227;0;0;0;0
14.11.19;20:10:00;1;420;6285;0;2;0;16503;0;0;0;0;3;0;10957;0;0;0;0;4;0;12652;0;0;0;0;5;0;41373;2;0;0;0;0;0;6;0;31612;2;0;0;0;0;0;7;0;29150;0;0;0;0;8;0;28353;0;0;0;0;9;0;15227;0;0;0;0
14.11.19;20:05:00;1;429;6250;0;2;0;16503;0;0;0;0;3;0;10957;0;0;0;0;4;0;12652;0;0;0;0;5;0;41373;2;0;0;0;0;0;6;0;31612;2;0;0;0;0;0;7;0;29150;0;0;0;0;8;0;28353;0;0;0;0;9;0;15227;0;0;0;0
14.11.19;20:00:00;1;422;6214;0;2;0;16503;0;0;0;0;3;0;10957;0;0;0;0;4;0;12652;0;0;0;0;5;0;41373;2;0;0;0;0;0;6;0;31612;2;0;0;0;0;0;7;0;29150;0;0;0;0;8;0;28353;0;0;0;0;9;0;15227;0;0;0;0
14.11.19;19:55:00;1;472;6179;0;2;0;16503;0;0;0;0;3;0;10957;0;0;0;0;4;0;12652;0;0;0;0;5;0;41373;2;0;0;0;0;0;6;0;31612;2;0;0;0;0;0;7;0;29150;0;0;0;0;8;0;28353;0;0;0;0;9;0;15227;0;0;0;0
14.11.19;19:50:00;1;474;6139;0;2;0;16503;0;0;0;0;3;0;10957;0;0;0;0;4;0;12652;0;0;0;0;5;0;41373;2;0;0;0;0;0;6;0;31612;2;0;0;0;0;0;7;0;29150;0;0;0;0;8;0;28353;0;0;0;0;9;0;15227;0;0;0;0
14.11.19;19:45:00;1;431;6102;0;2;0;16503;0;0;0;0;3;0;10957;0;0;0;0;4;0;12652;0;0;0;0;5;0;41373;2;0;0;0;0;0;6;0;31612;2;0;0;0;0;0;7;0;29150;0;0;0;0;8;0;28353;0;0;0;0;9;0;15227;0;0;0;0
14.11.19;19:40:00;1;466;6065;0;2;0;16503;0;0;0;0;3;0;10957;0;0;0;0;4;0;12652;0;0;0;0;5;0;41373;2;0;0;0;0;0;6;0;31612;2;0;0;0;0;0;7;0;29150;0;0;0;0;8;0;28353;0;0;0;0;9;0;15227;0;0;0;0
14.11.19;19:35:00;1;464;6026;0;2;0;16503;0;0;0;0;3;0;10957;0;0;0;0;4;0;12652;0;0;0;0;5;0;41373;2;0;0;0;0;0;6;0;31612;2;0;0;0;0;0;7;0;29150;0;0;0;0;8;0;28353;0;0;0;0;9;0;15227;0;0;0;0
14.11.19;19:30:00;1;467;5987;0;2;0;16503;0;0;0;0;3;0;10957;0;0;0;0;4;0;12652;0;0;0;0;5;0;41373;2;0;0;0;0;0;6;0;31612;2;0;0;0;0;0;7;0;29150;0;0;0;0;8;0;28353;0;0;0;0;9;0;15227;0;0;0;0
14.11.19;19:25:00;1;486;5947;0;2;0;16503;0;0;0;0;3;0;10957;0;0;0;0;4;0;12652;0;0;0;0;5;0;41373;2;0;0;0;0;0;6;0;31612;2;0;0;0;0;0;7;0;29150;0;0;0;0;8;0;28353;0;0;0;0;9;0;15227;0;0;0;0
14.11.19;19:20:00;1;481;5907;0;2;0;16503;0;0;0;0;3;0;10957;0;0;0;0;4;0;12652;0;0;0;0;5;0;41373;2;0;0;0;0;0;6;0;31612;2;0;0;0;0;0;7;0;29150;0;0;0;0;8;0;28353;0;0;0;0;9;0;15227;0;0;0;0
14.11.19;19:15:00;1;533;5866;0;2;0;16503;0;0;0;0;3;0;10957;0;0;0;0;4;0;12652;0;0;0;0;5;0;41373;2;0;0;0;0;0;6;0;31612;2;0;0;0;0;0;7;0;29150;0;0;0;0;8;0;28353;0;0;0;0;9;0;15227;0;0;0;0
14.11.19;19:10:00;1;519;5822;0;2;0;16503;0;0;0;0;3;0;10957;0;0;0;0;4;0;12652;0;0;0;0;5;0;41373;2;0;0;0;0;0;6;0;31612;2;0;0;0;0;0;7;0;29150;0;0;0;0;8;0;28353;0;0;0;0;9;0;15227;0;0;0;0
14.11.19;19:05:00;1;496;5779;0;2;0;16503;0;0;0;0;3;0;10957;0;0;0;0;4;0;12652;0;0;0;0;5;0;41373;2;0;0;0;0;0;6;0;31612;2;0;0;0;0;0;7;0;29150;0;0;0;0;8;0;28353;0;0;0;0;9;0;15227;0;0;0;0
14.11.19;19:00:00;1;490;5738;0;2;0;16503;0;0;0;0;3;0;10957;0;0;0;0;4;0;12652;0;0;0;0;5;0;41373;2;0;0;0;0;0;6;0;31612;2;0;0;0;0;0;7;0;29150;0;0;0;0;8;0;28353;0;0;0;0;9;0;15227;0;0;0;0
14.11.19;18:55:00;1;454;5697;0;2;0;16503;0;0;0;0;3;0;10957;0;0;0;0;4;0;12652;0;0;0;0;5;0;41373;2;0;0;0;0;0;6;0;31612;2;0;0;0;0;0;7;0;29150;0;0;0;0;8;0;28353;0;0;0;0;9;0;15227;0;0;0;0
14.11.19;18:50:00;1;475;5660;0;2;0;16503;0;0;0;0;3;0;10957;0;0;0;0;4;0;12652;0;0;0;0;5;0;41373;2;0;0;0;0;0;6;0;31612;2;0;0;0;0;0;7;0;29150;0;0;0;0;8;0;28353;0;0;0;0;9;0;15227;0;0;0;0
14.11.19;18:45:00;1;476;5620;0;2;0;16503;0;0;0;0;3;0;10957;0;0;0;0;4;0;12652;0;0;0;0;5;0;41373;2;0;0;0;0;0;6;0;31612;2;0;0;0;0;0;7;0;29150;0;0;0;0;8;0;28353;0;0;0;0;9;0;15227;0;0;0;0
14.11.19;18:40:00;1;495;5580;0;2;0;16503;0;0;0;0;3;0;10957;0;0;0;0;4;0;12652;0;0;0;0;5;0;41373;2;0;0;0;0;0;6;0;31612;2;0;0;0;0;0;7;0;29150;0;0;0;0;8;0;28353;0;0;0;0;9;0;15227;0;0;0;0
14.11.19;18:35:00;1;515;5539;0;2;0;16503;0;0;0;0;3;0;10957;0;0;0;0;4;0;12652;0;0;0;0;5;0;41373;2;0;0;0;0;0;6;0;31612;2;0;0;0;0;0;7;0;29150;0;0;0;0;8;0;28353;0;0;0;0;9;0;15227;0;0;0;0
14.11.19;18:30:00;1;475;5496;0;2;0;16503;0;0;0;0;3;0;10957;0;0;0;0;4;0;12652;0;0;0;0;5;0;41373;2;0;0;0;0;0;6;0;31612;2;0;0;0;0;0;7;0;29150;0;0;0;0;8;0;28353;0;0;0;0;9;0;15227;0;0;0;0
14.11.19;18:25:00;1;469;5456;0;2;0;16503;0;0;0;0;3;0;10957;0;0;0;0;4;0;12652;0;0;0;0;5;0;41373;2;0;0;0;0;0;6;0;31612;2;0;0;0;0;0;7;0;29150;0;0;0;0;8;0;28353;0;0;0;0;9;0;15227;0;0;0;0
14.11.19;18:20:00;1;551;5416;0;2;0;16503;0;0;0;0;3;0;10957;0;0;0;0;4;0;12652;0;0;0;0;5;0;41373;2;0;0;0;0;0;6;0;31612;2;0;0;0;0;0;7;0;29150;0;0;0;0;8;0;28353;0;0;0;0;9;0;15227;0;0;0;0
14.11.19;18:15:00;1;569;5370;0;2;0;16503;0;0;0;0;3;0;10957;0;0;0;0;4;0;12652;0;0;0;0;5;0;41373;2;0;0;0;0;0;6;0;31612;2;0;0;0;0;0;7;0;29150;0;0;0;0;8;0;28353;0;0;0;0;9;0;15227;0;0;0;0
14.11.19;18:10:00;1;601;5323;0;2;0;16503;0;0;0;0;3;0;10957;0;0;0;0;4;0;12652;0;0;0;0;5;0;41373;2;0;0;0;0;0;6;0;31612;2;0;0;0;0;0;7;0;29150;0;0;0;0;8;0;28353;0;0;0;0;9;0;15227;0;0;0;0
14.11.19;18:05:00;1;602;5273;0;2;0;16503;0;0;0;0;3;0;10957;0;0;0;0;4;0;12652;0;0;0;0;5;0;41373;2;0;0;0;0;0;6;0;31612;2;0;0;0;0;0;7;0;29150;0;0;0;0;8;0;28353;0;0;0;0;9;0;15227;0;0;0;0
14.11.19;18:00:00;1;591;5218;0;2;0;16503;0;0;0;0;3;0;10957;0;0;0;0;4;0;12652;0;0;0;0;5;0;41373;2;0;0;0;0;0;6;0;31612;2;0;0;0;0;0;7;0;29150;0;0;0;0;8;0;28353;0;0;0;0;9;0;15227;0;0;0;0
14.11.19;17:55:00;1;668;5168;0;2;0;16503;0;0;0;0;3;0;10957;0;0;0;0;4;0;12652;0;0;0;0;5;0;41373;2;0;0;0;0;0;6;0;31612;2;0;0;0;0;0;7;0;29150;0;0;0;0;8;0;28353;0;0;0;0;9;0;15227;0;0;0;0
14.11.19;17:50:00;1;639;5112;0;2;0;16503;0;0;0;0;3;0;10957;0;0;0;0;4;0;12652;0;0;0;0;5;0;41373;2;0;0;0;0;0;6;0;31612;2;0;0;0;0;0;7;0;29150;0;0;0;0;8;0;28353;0;0;0;0;9;0;15227;0;0;0;0
14.11.19;17:45:00;1;630;5058;0;2;0;16503;0;0;0;0;3;0;10957;0;0;0;0;4;0;12652;0;0;0;0;5;0;41373;2;0;0;0;0;0;6;0;31612;2;0;0;0;0;0;7;0;29150;0;0;0;0;8;0;28353;0;0;0;0;9;0;15227;0;0;0;0
14.11.19;17:40:00;1;631;5006;0;2;0;16503;0;0;0;0;3;0;10957;0;0;0;0;4;0;12652;0;0;0;0;5;0;41373;2;0;0;0;0;0;6;0;31612;2;0;0;0;0;0;7;0;29150;0;0;0;0;8;0;28353;0;0;0;0;9;0;15227;0;0;0;0
14.11.19;17:35:00;1;533;4957;0;2;0;16503;0;0;0;0;3;0;10957;0;0;0;0;4;0;12652;0;0;0;0;5;0;41373;2;0;0;0;0;0;6;0;31612;2;0;0;0;0;0;7;0;29150;0;0;0;0;8;0;28353;0;0;0;0;9;0;15227;0;0;0;0
14.11.19;17:30:00;1;510;4913;0;2;0;16503;0;0;0;0;3;0;10957;0;0;0;0;4;0;12652;0;0;0;0;5;0;41373;2;0;0;0;0;0;6;0;31612;2;0;0;0;0;0;7;0;29150;0;0;0;0;8;0;28353;0;0;0;0;9;0;15227;0;0;0;0
14.11.19;17:25:00;1;540;4871;0;2;0;16503;0;0;0;0;3;0;10957;0;0;0;0;4;0;12652;0;0;0;0;5;0;41373;2;0;0;0;0;0;6;0;31612;2;0;0;0;0;0;7;0;29150;0;0;0;0;8;0;28353;0;0;0;0;9;0;15227;0;0;0;0
14.11.19;17:20:00;1;834;4822;0;2;0;16503;0;0;0;0;3;0;10957;0;0;0;0;4;0;12652;0;0;0;0;5;0;41373;2;0;0;0;0;0;6;0;31612;2;0;0;0;0;0;7;0;29150;0;0;0;0;8;0;28353;0;0;0;0;9;0;15227;0;0;0;0
14.11.19;17:15:00;1;823;4752;0;2;0;16503;0;0;0;0;3;0;10957;0;0;0;0;4;0;12652;0;0;0;0;5;0;41373;2;0;0;0;0;0;6;0;31612;2;0;0;0;0;0;7;0;29150;0;0;0;0;8;0;28353;0;0;0;0;9;0;15227;0;0;0;0
14.11.19;17:10:00;1;851;4682;0;2;0;16503;0;0;0;0;3;0;10957;0;0;0;0;4;0;12652;0;0;0;0;5;0;41373;2;0;0;0;0;0;6;0;31612;2;0;0;0;0;0;7;0;29150;0;0;0;0;8;0;28353;0;0;0;0;9;0;15227;0;0;0;0
14.11.19;17:05:00;1;814;4615;0;2;0;16503;0;0;0;0;3;0;10957;0;0;0;0;4;0;12652;0;0;0;0;5;0;41373;2;0;0;0;0;0;6;0;31612;2;0;0;0;0;0;7;0;29150;0;0;0;0;8;0;28353;0;0;0;0;9;0;15227;0;0;0;0
14.11.19;17:00:00;1;685;4548;0;2;0;16503;0;0;0;0;3;0;10957;0;0;0;0;4;0;12652;0;0;0;0;5;0;41373;2;0;0;0;0;0;6;0;31612;2;0;0;0;0;0;7;0;29150;0;0;0;0;8;0;28353;0;0;0;0;9;0;15227;0;0;0;0
14.11.19;16:55:00;1;738;4489;0;2;0;16503;0;0;72;4;3;0;10957;0;0;157;9;4;0;12652;0;0;0;0;5;0;41373;2;0;0;0;0;0;6;0;31612;2;0;0;0;0;0;7;0;29150;0;0;0;0;8;0;28353;0;0;0;0;9;0;15227;0;0;0;0
14.11.19;16:50:00;1;568;4429;0;2;0;16503;6;0;293;16;3;0;10957;6;0;328;18;4;0;12652;0;0;32;7;5;0;41373;2;0;0;0;0;0;6;0;31612;2;0;0;0;0;0;7;0;29150;0;0;0;0;8;0;28353;0;0;0;0;9;0;15227;0;0;0;0
14.11.19;16:45:00;1;284;4382;0;2;0;16503;6;0;343;16;3;0;10957;6;2;400;18;4;0;12652;1;0;101;14;5;0;41373;2;0;0;100;99;9;6;0;31612;0;3;0;59;119;8;7;0;29150;0;0;85;6;8;0;28353;0;0;85;6;9;0;15227;0;0;87;4
14.11.19;16:40:00;1;214;4360;0;2;0;16503;6;0;376;16;3;0;10957;6;0;472;18;4;0;12652;1;0;153;15;5;0;41373;23;0;0;389;415;27;6;0;31612;23;6;5;327;364;25;7;0;29150;6;0;318;20;8;0;28353;6;0;317;20;9;0;15227;6;0;255;11
14.11.19;16:35:00;1;244;4342;0;2;0;16503;6;0;397;17;3;1;10957;4;6;462;18;4;0;12652;1;0;199;15;5;0;41373;26;0;0;418;595;27;6;0;31612;23;3;5;377;372;25;7;0;29150;6;0;388;21;8;0;28353;6;0;400;20;9;0;15227;6;0;412;15
14.11.19;16:30:00;1;237;4321;0;2;0;16503;6;0;410;17;3;3;10957;6;6;496;19;4;0;12652;1;0;225;16;5;10;41373;4;0;0;417;657;28;6;0;31612;23;8;2;347;578;26;7;0;29150;6;2;426;21;8;0;28353;4;1;433;21;9;0;15227;3;1;445;15
14.11.19;16:25:00;1;212;4301;0;2;3;16503;6;8;413;18;3;2;10957;6;12;489;19;4;0;12652;3;0;199;16;5;75;41372;4;3;12;385;613;29;6;43;31612;1;14;24;511;489;27;7;1;29150;6;4;460;22;8;0;28353;3;6;445;21;9;2;15227;6;3;502;16
14.11.19;16:20:00;1;270;4283;0;2;43;16503;4;74;360;19;3;3;10956;6;9;523;19;4;4;12652;3;4;199;17;5;100;41366;4;20;25;385;613;29;6;68;31608;4;22;33;493;470;27;7;4;29149;6;8;475;23;8;4;28352;6;8;474;22;9;0;15227;6;5;520;16
14.11.19;16:15:00;1;210;4261;0;2;60;16499;4;93;362;20;3;4;10956;6;9;533;20;4;9;12652;3;9;198;17;5;127;41357;4;33;34;385;613;29;6;87;31602;4;33;46;493;470;27;7;33;29149;6;57;394;23;8;20;28352;6;35;440;23;9;2;15227;6;10;510;17
14.11.19;16:10:00;1;243;4244;0;2;81;16494;4;115;371;21;3;8;10956;6;14;533;21;4;21;12651;3;22;198;17;5;157;41346;4;47;50;385;613;29;6;107;31595;4;43;58;493;470;28;7;54;29146;4;90;438;24;8;47;28350;4;88;438;23;9;4;15227;6;8;542;17
14.11.19;16:05:00;1;248;4223;0;2;124;16487;4;161;377;22;3;63;10955;4;102;458;21;4;52;12650;3;54;197;18;5;204;41333;4;78;71;385;613;29;6;136;31585;4;59;70;493;470;28;7;89;29142;4;128;417;24;8;74;28347;4;115;447;24;9;4;15226;6;8;554;18
14.11.19;16:00:00;1;251;4202;0;2;677;16477;4;734;399;23;3;364;10950;4;410;432;22;4;285;12645;5;296;199;18;5;606;41315;4;287;241;408;636;30;6;450;31573;4;214;240;581;559;28;7;279;29135;4;310;367;25;8;174;28340;4;214;447;24;9;8;15226;3;14;560;18
14.11.19;15:55:00;1;249;4181;0;2;988;16424;4;1054;394;24;3;530;10921;4;581;446;22;4;367;12623;5;382;199;18;5;890;41262;4;440;369;416;699;30;6;685;31533;4;333;353;601;572;28;7;604;29112;4;651;370;26;8;280;28326;4;322;472;25;9;10;15225;4;15;572;19
14.11.19;15:50:00;1;239;4161;0;2;922;16341;4;983;392;24;3;518;10877;4;545;434;23;4;333;12592;5;347;201;18;5;922;41186;4;453;377;418;691;30;6;663;31475;4;304;314;552;531;28;7;866;29062;4;921;441;26;8;432;28303;4;476;481;25;9;67;15224;4;101;487;20
14.11.19;15:45:00;1;204;4141;0;2;329;16266;4;371;382;24;3;170;10834;4;207;429;23;4;146;12565;5;152;218;18;5;417;41115;4;191;169;388;613;31;6;292;31424;4;154;166;509;494;28;7;359;28991;4;400;473;27;8;196;28268;4;235;388;22;9;61;15218;4;92;454;20
14.11.19;15:40:00;1;204;4124;0;2;533;16238;4;583;377;26;3;284;10820;4;327;418;24;4;216;12552;5;224;206;19;5;642;41079;4;308;262;413;630;31;6;482;31398;4;239;260;549;560;29;7;644;28961;4;692;473;27;8;435;28247;4;474;430;27;9;78;15213;4;107;459;21
14.11.19;15:35:00;1;205;4107;0;2;965;16193;4;1035;394;28;3;505;10796;4;558;449;24;4;304;12534;5;317;210;19;5;1083;41025;4;549;453;418;654;31;6;799;31358;4;406;420;581;568;29;7;1105;28909;4;1175;472;28;8;749;28212;4;801;413;27;9;90;15207;4;117;380;21
14.11.19;15:30:00;1;205;4090;0;2;1636;16116;4;1728;390;29;3;879;10755;4;944;440;25;4;446;12510;5;464;200;20;5;1893;40931;4;975;809;428;695;31;6;1445;31288;4;740;749;602;576;29;7;2081;28819;4;2179;480;29;8;1271;28152;4;1340;436;28;9;161;15199;4;189;357;22
14.11.19;15:25:00;1;207;4073;0;2;1803;15981;4;1905;392;29;3;991;10683;4;1060;442;26;4;471;12473;5;490;206;20;5;2180;40770;4;1134;951;426;696;32;6;1670;31166;4;848;851;600;582;29;7;2255;28647;4;2369;512;29;8;1728;28045;4;1814;475;29;9;336;15186;4;371;358;23
14.11.19;15:20:00;1;232;4055;0;2;1914;15831;4;2023;394;30;3;1073;10601;4;1141;432;26;4;492;12434;5;513;223;20;5;2389;40587;4;1264;1039;427;695;32;6;1830;31027;4;927;920;599;577;29;7;2494;28459;4;2627;496;30;8;2226;27902;4;2338;466;29;9;738;15159;4;785;355;25
14.11.19;15:15:00;1;308;4036;0;2;2013;15672;4;2123;391;31;3;1127;10512;4;1198;430;26;4;515;12393;5;536;226;20;5;2602;40385;4;1392;1134;425;696;32;6;1988;30873;4;1005;989;606;580;29;7;2857;28253;4;2998;488;30;8;2712;27717;4;2847;476;30;9;977;15098;4;1033;377;26
14.11.19;15:10:00;1;344;4010;0;2;2106;15504;4;2223;391;31;3;1184;10418;4;1256;427;27;4;551;12350;5;574;218;21;5;2827;40167;4;1498;1232;429;696;32;6;2146;30707;4;1084;1075;602;579;30;7;3042;28015;4;3196;490;30;8;2977;27492;4;3122;478;30;9;1231;15016;4;1298;422;27
14.11.19;15:05:00;1;295;3981;0;2;2207;15329;4;2327;386;32;3;1236;10319;4;1312;428;27;4;584;12304;5;608;218;21;5;3041;39930;4;1632;1327;430;700;33;6;2309;30527;4;1177;1156;598;580;30;7;3186;27762;4;3354;482;31;8;3115;27244;4;3272;484;30;9;1432;14914;4;1520;456;28
14.11.19;15:00:00;1;265;3957;0;2;2302;15146;4;2424;387;33;3;1291;10216;4;1369;429;27;4;625;12255;5;651;227;21;5;3246;39675;4;1753;1420;428;695;33;6;2474;30333;4;1275;1255;603;582;30;7;3324;27497;4;3491;482;31;8;3262;26986;4;3427;480;31;9;1614;14795;4;1710;489;29
14.11.19;14:55:00;1;266;3934;0;2;2384;14954;4;2509;388;33;3;1342;10109;4;1420;430;28;4;673;12203;5;701;231;22;5;3473;39402;4;1865;1526;433;691;33;6;2640;30126;4;1364;1334;600;579;30;7;3448;27223;4;3614;477;31;8;3382;26716;4;3546;477;31;9;1760;14662;4;1864;512;29
14.11.19;14:50:00;1;265;3912;0;2;2463;14755;4;2595;393;34;3;1371;9997;4;1453;425;28;4;715;12147;5;744;222;22;5;3649;39112;4;1969;1603;428;693;33;6;2775;29906;4;1423;1399;601;579;30;7;3553;26933;4;3737;479;32;8;3498;26432;4;3672;474;31;9;1868;14514;4;1979;516;30
14.11.19;14:45:00;1;265;3890;0;2;2660;14550;4;2804;405;35;3;1451;9883;4;1534;437;29;4;777;12088;5;809;221;22;5;3880;38807;4;2107;1706;431;689;33;6;2944;29673;4;1516;1486;600;582;30;7;3709;26638;4;3895;478;32;8;3643;26141;4;3823;478;32;9;1978;14359;4;2096;523;30
14.11.19;14:40:00;1;208;3868;0;2;2723;14329;4;2870;406;35;3;1567;9762;4;1659;462;29;4;809;12023;5;842;220;23;5;4039;38482;4;2177;1788;423;694;34;6;3076;29426;4;1570;1523;598;575;30;7;3820;26328;4;4009;479;32;8;3749;25838;4;3932;478;32;9;2047;14194;4;2171;532;31
14.11.19;14:35:00;1;228;3850;0;2;2801;14101;4;2955;409;35;3;1692;9632;4;1792;491;30;4;857;11956;5;892;222;23;5;4251;38143;4;2310;1876;427;688;34;6;3224;29169;4;1666;1627;595;576;30;7;3933;26009;4;4134;477;32;8;3864;25525;4;4052;473;32;9;2107;14023;4;2230;526;31
14.11.19;14:30:00;1;243;3831;0;2;2870;13868;4;3025;406;35;3;1792;9491;4;1900;505;30;4;912;11884;5;950;231;23;5;4453;37790;4;2405;1953;426;683;34;6;3376;28900;4;1748;1711;596;579;30;7;4034;25682;4;4228;476;33;8;3945;25204;4;4137;470;32;9;2160;13848;4;2286;526;31
14.11.19;14:25:00;1;248;3809;0;2;2913;13629;4;3068;405;36;3;1872;9342;4;1982;512;30;4;964;11809;5;1004;236;24;5;4598;37418;4;2506;2028;426;685;34;6;3498;28618;4;1794;1749;596;576;30;7;4132;25349;4;4335;476;33;8;4037;24883;4;4235;470;32;9;2206;13672;4;2334;529;31
14.11.19;14:20:00;1;251;3789;0;2;2983;13387;4;3141;400;36;3;1925;9186;4;2032;505;30;4;1029;11728;5;1072;242;24;5;4816;37035;4;2623;2129;425;680;34;6;3646;28326;4;1898;1847;592;574;31;7;4257;25002;4;4472;479;33;8;4166;24539;4;4372;473;33;9;2283;13485;4;2417;527;32
14.11.19;14:15:00;1;253;3768;0;2;3058;13138;4;3220;402;36;3;1969;9026;4;2083;511;31;4;1105;11643;5;1151;247;24;5;5011;36633;4;2730;2217;426;685;34;6;3803;28022;4;1959;1900;594;573;31;7;4341;24650;4;4564;476;33;8;4255;24194;4;4461;463;33;9;2332;13296;4;2468;520;32